| time (UTC) | temp F | wind direction | speed MPH | gust MPH | rain 1hr in | rain 24hr in | rain mn in | humidity % | barometer mb |
| 20260505153152 | 75 | 244 | 4.0 | 10.0 | 0.00 | 0.00 | 0.00 | 47 | 1010.0 |
| 20260505152648 | 74 | 248 | 0.0 | 6.0 | 0.00 | 0.00 | 0.00 | 47 | 1010.2 |
| 20260505152144 | 74 | 284 | 5.0 | 8.0 | 0.00 | 0.00 | 0.00 | 48 | 1010.2 |
| 20260505151639 | 74 | 232 | 6.0 | 9.0 | 0.00 | 0.00 | 0.00 | 48 | 1010.3 |
| 20260505151137 | 73 | 239 | 2.0 | 11.0 | 0.00 | 0.00 | 0.00 | 49 | 1010.4 |
| 20260505150633 | 74 | 226 | 2.0 | 5.0 | 0.00 | 0.00 | 0.00 | 49 | 1010.4 |
| 20260505150130 | 73 | 242 | 0.0 | 8.0 | 0.00 | 0.00 | 0.00 | 50 | 1010.6 |
| 20260505140559 | 70 | 267 | 5.0 | 9.0 | 0.00 | 0.00 | 0.00 | 55 | 1010.6 |
| 20260505125012 | 68 | 210 | 4.0 | 5.0 | 0.00 | 0.00 | 0.00 | 57 | 1010.4 |
| 20260505124509 | 68 | 242 | 4.0 | 5.0 | 0.00 | 0.00 | 0.00 | 57 | 1010.3 |
| 20260505124005 | 67 | 18 | 1.0 | 7.0 | 0.00 | 0.00 | 0.00 | 59 | 1010.2 |
| 20260505123502 | 67 | 242 | 4.0 | 7.0 | 0.00 | 0.00 | 0.00 | 59 | 1010.3 |
| 20260505122958 | 67 | 230 | 4.0 | 5.0 | 0.00 | 0.00 | 0.00 | 59 | 1010.3 |
| 20260505122455 | 67 | 219 | 4.0 | 6.0 | 0.00 | 0.00 | 0.00 | 59 | 1010.2 |
| 20260505121952 | 67 | 208 | 3.0 | 5.0 | 0.00 | 0.00 | 0.00 | 60 | 1010.1 |
| 20260505121449 | 66 | 233 | 2.0 | 10.0 | 0.00 | 0.00 | 0.00 | 60 | 1010.3 |
| 20260505120944 | 66 | 221 | 5.0 | 9.0 | 0.00 | 0.00 | 0.00 | 61 | 1010.4 |
| 20260505120441 | 65 | 256 | 2.0 | 6.0 | 0.00 | 0.00 | 0.00 | 61 | 1010.3 |
| 20260505115940 | 66 | 238 | 3.0 | 6.0 | 0.00 | 0.00 | 0.00 | 61 | 1010.1 |
| 20260505115437 | 65 | 268 | 2.0 | 5.0 | 0.00 | 0.00 | 0.00 | 62 | 1010.2 |
| 20260505114935 | 65 | 241 | 3.0 | 5.0 | 0.00 | 0.00 | 0.00 | 63 | 1010.0 |
| 20260505114431 | 65 | 195 | 1.0 | 5.0 | 0.00 | 0.00 | 0.00 | 63 | 1010.1 |
| 20260505113927 | 65 | 218 | 3.0 | 3.0 | 0.00 | 0.00 | 0.00 | 62 | 1010.3 |
| 20260505113424 | 64 | 247 | 3.0 | 3.0 | 0.00 | 0.00 | 0.00 | 63 | 1010.6 |
| 20260505112920 | 64 | 247 | 2.0 | 6.0 | 0.00 | 0.00 | 0.00 | 64 | 1010.4 |
| 20260505112418 | 64 | 240 | 4.0 | 6.0 | 0.00 | 0.00 | 0.00 | 64 | 1010.3 |
| 20260505111914 | 63 | 289 | 5.0 | 9.0 | 0.00 | 0.00 | 0.00 | 65 | 1010.3 |
| 20260505111414 | 62 | 247 | 6.0 | 10.0 | 0.00 | 0.00 | 0.00 | 66 | 1010.4 |
| 20260505110911 | 62 | 245 | 7.0 | 7.0 | 0.00 | 0.00 | 0.00 | 67 | 1010.4 |
| 20260505110408 | 62 | 255 | 4.0 | 10.0 | 0.00 | 0.00 | 0.00 | 67 | 1010.2 |
| 20260505101838 | 61 | 249 | 5.0 | 6.0 | 0.00 | 0.00 | 0.00 | 69 | 1010.1 |
| 20260505101334 | 61 | 286 | 3.0 | 6.0 | 0.00 | 0.00 | 0.00 | 69 | 1010.2 |
| 20260505100830 | 61 | 250 | 4.0 | 6.0 | 0.00 | 0.00 | 0.00 | 70 | 1010.1 |
| 20260505100327 | 60 | 249 | 6.0 | 6.0 | 0.00 | 0.00 | 0.00 | 71 | 1009.9 |
| 20260505095822 | 61 | 236 | 0.0 | 11.0 | 0.00 | 0.00 | 0.00 | 70 | 1009.7 |
| 20260505095320 | 61 | 274 | 6.0 | 11.0 | 0.00 | 0.00 | 0.00 | 70 | 1009.6 |
| 20260505094816 | 61 | 240 | 3.0 | 5.0 | 0.00 | 0.00 | 0.00 | 70 | 1009.5 |
| 20260505094313 | 61 | 245 | 4.0 | 10.0 | 0.00 | 0.00 | 0.00 | 70 | 1009.5 |
| 20260505093808 | 61 | 237 | 4.0 | 6.0 | 0.00 | 0.00 | 0.00 | 70 | 1009.3 |
| 20260505093306 | 61 | 249 | 9.0 | 9.0 | 0.00 | 0.00 | 0.00 | 69 | 1009.3 |
| 20260505092803 | 61 | 280 | 2.0 | 7.0 | 0.00 | 0.00 | 0.00 | 70 | 1009.5 |
| 20260505092304 | 60 | 242 | 5.0 | 9.0 | 0.00 | 0.00 | 0.00 | 70 | 1009.6 |
| 20260505091758 | 60 | 235 | 2.0 | 5.0 | 0.00 | 0.00 | 0.00 | 70 | 1009.6 |
| 20260505091256 | 60 | 248 | 3.0 | 11.0 | 0.00 | 0.00 | 0.00 | 71 | 1009.7 |
| 20260505090754 | 59 | 268 | 2.0 | 4.0 | 0.00 | 0.00 | 0.00 | 72 | 1009.4 |
| 20260505090252 | 59 | 277 | 2.0 | 5.0 | 0.00 | 0.00 | 0.00 | 72 | 1009.7 |
| 20260505085749 | 59 | 229 | 2.0 | 7.0 | 0.00 | 0.00 | 0.00 | 73 | 1009.5 |
| 20260505085247 | 59 | 225 | 3.0 | 5.0 | 0.00 | 0.00 | 0.00 | 74 | 1009.6 |
| 20260505084744 | 58 | 237 | 2.0 | 4.0 | 0.00 | 0.00 | 0.00 | 74 | 1009.5 |
| 20260505084243 | 58 | 218 | 2.0 | 5.0 | 0.00 | 0.00 | 0.00 | 75 | 1009.5 |
| 20260505083739 | 58 | 193 | 4.0 | 5.0 | 0.00 | 0.00 | 0.00 | 75 | 1009.4 |
| 20260505083236 | 58 | 282 | 1.0 | 4.0 | 0.00 | 0.00 | 0.00 | 76 | 1009.6 |
| 20260505082732 | 57 | 236 | 2.0 | 4.0 | 0.00 | 0.00 | 0.00 | 77 | 1009.5 |
| 20260505082230 | 57 | 204 | 2.0 | 3.0 | 0.00 | 0.00 | 0.00 | 78 | 1009.5 |
| 20260505081725 | 57 | 257 | 1.0 | 3.0 | 0.00 | 0.00 | 0.00 | 78 | 1009.5 |
| 20260505081223 | 57 | 232 | 2.0 | 3.0 | 0.00 | 0.00 | 0.00 | 78 | 1009.6 |
| 20260505080720 | 57 | 134 | 1.0 | 5.0 | 0.00 | 0.00 | 0.00 | 79 | 1009.5 |
| 20260505080215 | 57 | 133 | 2.0 | 4.0 | 0.00 | 0.00 | 0.00 | 79 | 1009.6 |
| 20260505075711 | 57 | 225 | 4.0 | 4.0 | 0.00 | 0.00 | 0.00 | 79 | 1009.4 |
| 20260505075209 | 57 | 219 | 3.0 | 4.0 | 0.00 | 0.00 | 0.00 | 79 | 1009.5 |
| 20260505074706 | 57 | 282 | 1.0 | 4.0 | 0.00 | 0.00 | 0.00 | 79 | 1009.6 |
| 20260505074203 | 57 | 223 | 2.0 | 4.0 | 0.00 | 0.00 | 0.00 | 79 | 1009.5 |
| 20260505073700 | 57 | 238 | 2.0 | 4.0 | 0.00 | 0.00 | 0.00 | 80 | 1009.7 |
| 20260505073158 | 56 | 243 | 3.0 | 4.0 | 0.00 | 0.00 | 0.00 | 81 | 1009.6 |
| 20260505072654 | 56 | 269 | 2.0 | 4.0 | 0.00 | 0.00 | 0.00 | 81 | 1009.5 |
| 20260505072151 | 56 | 244 | 2.0 | 4.0 | 0.00 | 0.00 | 0.00 | 81 | 1009.4 |
| 20260505071646 | 56 | 22 | 0.0 | 3.0 | 0.00 | 0.00 | 0.00 | 81 | 1009.5 |
| 20260505071144 | 56 | 252 | 2.0 | 3.0 | 0.00 | 0.00 | 0.00 | 80 | 1009.4 |
| 20260505070641 | 57 | 185 | 3.0 | 4.0 | 0.00 | 0.00 | 0.00 | 79 | 1009.6 |
| 20260505070137 | 57 | 225 | 2.0 | 5.0 | 0.00 | 0.00 | 0.00 | 79 | 1009.5 |
| 20260505065633 | 57 | 260 | 3.0 | 6.0 | 0.00 | 0.00 | 0.00 | 78 | 1009.6 |
| 20260505065130 | 57 | 321 | 1.0 | 4.0 | 0.00 | 0.00 | 0.00 | 77 | 1009.3 |
| 20260505064627 | 57 | 261 | 3.0 | 6.0 | 0.00 | 0.00 | 0.00 | 77 | 1009.6 |
| 20260505064125 | 58 | 163 | 2.0 | 5.0 | 0.00 | 0.00 | 0.00 | 76 | 1009.3 |
| 20260505063622 | 58 | 169 | 3.0 | 6.0 | 0.00 | 0.00 | 0.00 | 74 | 1009.7 |
| 20260505063118 | 58 | 114 | 1.0 | 6.0 | 0.00 | 0.00 | 0.00 | 73 | 1009.6 |
| 20260505062615 | 59 | 144 | 2.0 | 5.0 | 0.00 | 0.00 | 0.00 | 71 | 1009.5 |
| 20260505062112 | 59 | 199 | 0.0 | 4.0 | 0.00 | 0.00 | 0.00 | 70 | 1009.7 |
| 20260505061609 | 59 | 161 | 2.0 | 4.0 | 0.00 | 0.00 | 0.00 | 70 | 1009.6 |
| 20260505061107 | 59 | 224 | 2.0 | 3.0 | 0.00 | 0.00 | 0.00 | 68 | 1009.6 |
| 20260505060605 | 60 | 144 | 1.0 | 5.0 | 0.00 | 0.00 | 0.00 | 67 | 1009.5 |
| 20260505055556 | 61 | 179 | 2.0 | 3.0 | 0.00 | 0.00 | 0.00 | 64 | 1009.7 |
| 20260505055053 | 61 | 246 | 0.0 | 4.0 | 0.00 | 0.00 | 0.00 | 63 | 1009.7 |
| 20260505054550 | 61 | 223 | 3.0 | 4.0 | 0.00 | 0.00 | 0.00 | 62 | 1009.9 |
| 20260505054049 | 61 | 211 | 5.0 | 6.0 | 0.00 | 0.00 | 0.00 | 62 | 1009.6 |
| 20260505053545 | 61 | 203 | 3.0 | 8.0 | 0.00 | 0.00 | 0.00 | 61 | 1009.7 |
| 20260505053042 | 61 | 247 | 4.0 | 5.0 | 0.00 | 0.00 | 0.00 | 61 | 1009.9 |
| 20260505052539 | 62 | 240 | 4.0 | 6.0 | 0.00 | 0.00 | 0.00 | 61 | 1009.8 |
| 20260505052037 | 62 | 206 | 3.0 | 4.0 | 0.00 | 0.00 | 0.00 | 61 | 1010.1 |
| 20260505051533 | 62 | 160 | 2.0 | 5.0 | 0.00 | 0.00 | 0.00 | 60 | 1010.1 |
| 20260505051031 | 62 | 248 | 3.0 | 6.0 | 0.00 | 0.00 | 0.00 | 60 | 1009.9 |
| 20260505050529 | 62 | 235 | 6.0 | 6.0 | 0.00 | 0.00 | 0.00 | 59 | 1010.2 |
| 20260505041457 | 63 | 256 | 3.0 | 5.0 | 0.00 | 0.00 | 0.00 | 56 | 1010.4 |
| 20260505040954 | 63 | 245 | 4.0 | 6.0 | 0.00 | 0.00 | 0.00 | 55 | 1010.4 |
| 20260505040452 | 63 | 243 | 2.0 | 4.0 | 0.00 | 0.00 | 0.00 | 55 | 1010.3 |
| 20260505035948 | 64 | 245 | 1.0 | 6.0 | 0.00 | 0.00 | 0.00 | 55 | 1010.4 |
| 20260505035444 | 64 | 160 | 3.0 | 6.0 | 0.00 | 0.00 | 0.00 | 54 | 1010.2 |
| 20260505034942 | 64 | 298 | 2.0 | 8.0 | 0.00 | 0.00 | 0.00 | 54 | 1010.3 |
| 20260505034438 | 64 | 254 | 4.0 | 11.0 | 0.00 | 0.00 | 0.00 | 54 | 1010.5 |
| 20260505033935 | 64 | 250 | 4.0 | 13.0 | 0.00 | 0.00 | 0.00 | 53 | 1010.4 |
| 20260505033432 | 64 | 258 | 4.0 | 5.0 | 0.00 | 0.00 | 0.00 | 52 | 1010.5 |
| 20260505032930 | 64 | 166 | 4.0 | 13.0 | 0.00 | 0.00 | 0.00 | 52 | 1010.4 |
| 20260505032427 | 64 | 269 | 1.0 | 8.0 | 0.00 | 0.00 | 0.00 | 51 | 1010.2 |
| 20260505031923 | 64 | 241 | 3.0 | 10.0 | 0.00 | 0.00 | 0.00 | 51 | 1010.3 |
| 20260505031420 | 64 | 222 | 5.0 | 7.0 | 0.00 | 0.00 | 0.00 | 50 | 1010.2 |
| 20260505030917 | 65 | 103 | 3.0 | 10.0 | 0.00 | 0.00 | 0.00 | 50 | 1010.7 |
| 20260505030413 | 65 | 241 | 5.0 | 7.0 | 0.00 | 0.00 | 0.00 | 49 | 1010.6 |
| 20260505025909 | 65 | 219 | 0.0 | 6.0 | 0.00 | 0.00 | 0.00 | 49 | 1010.7 |
| 20260505025406 | 65 | 187 | 1.0 | 6.0 | 0.00 | 0.00 | 0.00 | 49 | 1010.5 |
| 20260505024905 | 65 | 239 | 1.0 | 8.0 | 0.00 | 0.00 | 0.00 | 48 | 1010.5 |
| 20260505024402 | 65 | 252 | 3.0 | 7.0 | 0.00 | 0.00 | 0.00 | 49 | 1010.7 |
| 20260505023859 | 65 | 257 | 3.0 | 7.0 | 0.00 | 0.00 | 0.00 | 49 | 1010.5 |
| 20260505023356 | 65 | 206 | 2.0 | 7.0 | 0.00 | 0.00 | 0.00 | 49 | 1010.6 |
| 20260505022853 | 65 | 240 | 2.0 | 10.0 | 0.00 | 0.00 | 0.00 | 48 | 1010.6 |
| 20260505022350 | 65 | 262 | 2.0 | 5.0 | 0.00 | 0.00 | 0.00 | 48 | 1010.8 |
| 20260505021848 | 65 | 249 | 4.0 | 5.0 | 0.00 | 0.00 | 0.00 | 48 | 1010.7 |
| 20260505021344 | 65 | 240 | 5.0 | 7.0 | 0.00 | 0.00 | 0.00 | 48 | 1010.8 |
| 20260505020840 | 65 | 269 | 0.0 | 4.0 | 0.00 | 0.00 | 0.00 | 48 | 1010.5 |
| 20260505020335 | 66 | 255 | 3.0 | 6.0 | 0.00 | 0.00 | 0.00 | 47 | 1010.6 |
| 20260505015832 | 66 | 224 | 3.0 | 6.0 | 0.00 | 0.00 | 0.00 | 47 | 1010.7 |
| 20260505015330 | 66 | 216 | 4.0 | 7.0 | 0.00 | 0.00 | 0.00 | 47 | 1010.6 |
| 20260505014827 | 66 | 248 | 3.0 | 6.0 | 0.00 | 0.00 | 0.00 | 47 | 1010.5 |
| 20260505014324 | 66 | 213 | 0.0 | 6.0 | 0.00 | 0.00 | 0.00 | 47 | 1010.6 |
| 20260505013820 | 66 | 241 | 4.0 | 7.0 | 0.00 | 0.00 | 0.00 | 47 | 1010.7 |
| 20260505013318 | 66 | 265 | 4.0 | 8.0 | 0.00 | 0.00 | 0.00 | 47 | 1010.8 |
| 20260505012816 | 66 | 221 | 5.0 | 7.0 | 0.00 | 0.00 | 0.00 | 47 | 1010.6 |
| 20260505012313 | 66 | 203 | 2.0 | 6.0 | 0.00 | 0.00 | 0.00 | 47 | 1010.3 |
| 20260505011809 | 66 | 136 | 2.0 | 3.0 | 0.00 | 0.00 | 0.00 | 47 | 1010.4 |
| 20260505011306 | 67 | 250 | 2.0 | 8.0 | 0.00 | 0.00 | 0.00 | 47 | 1010.1 |
| 20260505010802 | 67 | 246 | 5.0 | 6.0 | 0.00 | 0.00 | 0.00 | 47 | 1010.2 |
| 20260505010258 | 67 | 257 | 6.0 | 9.0 | 0.00 | 0.00 | 0.00 | 48 | 1010.1 |
| 20260505005754 | 66 | 231 | 3.0 | 7.0 | 0.00 | 0.00 | 0.00 | 48 | 1010.1 |
| 20260505005252 | 66 | 185 | 6.0 | 7.0 | 0.00 | 0.00 | 0.00 | 50 | 1010.0 |
| 20260505004749 | 66 | 234 | 4.0 | 8.0 | 0.00 | 0.00 | 0.00 | 51 | 1009.8 |
| 20260505004245 | 66 | 246 | 2.0 | 8.0 | 0.00 | 0.00 | 0.00 | 51 | 1009.9 |
| 20260505003742 | 66 | 245 | 4.0 | 8.0 | 0.00 | 0.00 | 0.00 | 52 | 1009.9 |
| 20260505003240 | 66 | 230 | 5.0 | 11.0 | 0.00 | 0.00 | 0.00 | 52 | 1009.9 |
| 20260505002736 | 66 | 189 | 3.0 | 9.0 | 0.00 | 0.00 | 0.00 | 52 | 1009.8 |
| 20260505002234 | 66 | 227 | 2.0 | 5.0 | 0.00 | 0.00 | 0.00 | 53 | 1009.8 |
| 20260505001731 | 66 | 261 | 2.0 | 9.0 | 0.00 | 0.00 | 0.00 | 53 | 1009.6 |
| 20260505001228 | 66 | 241 | 3.0 | 7.0 | 0.00 | 0.00 | 0.00 | 53 | 1009.6 |
| 20260505000725 | 66 | 220 | 4.0 | 8.0 | 0.00 | 0.00 | 0.00 | 53 | 1009.3 |
| 20260505000223 | 65 | 222 | 4.0 | 5.0 | 0.00 | 0.00 | 0.00 | 54 | 1009.4 |
| 20260504235719 | 66 | 248 | 4.0 | 4.0 | 0.00 | 0.00 | 0.00 | 54 | 1009.1 |
| 20260504235215 | 66 | 264 | 1.0 | 6.0 | 0.00 | 0.00 | 0.00 | 54 | 1009.2 |
| 20260504234713 | 66 | 218 | 3.0 | 6.0 | 0.00 | 0.00 | 0.00 | 54 | 1009.2 |
| 20260504234210 | 66 | 115 | 3.0 | 6.0 | 0.00 | 0.00 | 0.00 | 53 | 1009.3 |
| 20260504233706 | 66 | 277 | 2.0 | 8.0 | 0.00 | 0.00 | 0.00 | 53 | 1009.1 |
| 20260504233202 | 66 | 206 | 1.0 | 6.0 | 0.00 | 0.00 | 0.00 | 53 | 1008.9 |
| 20260504232700 | 67 | 226 | 4.0 | 6.0 | 0.00 | 0.00 | 0.00 | 52 | 1008.8 |
| 20260504232156 | 67 | 254 | 3.0 | 3.0 | 0.00 | 0.00 | 0.00 | 52 | 1008.8 |
| 20260504231653 | 67 | 195 | 3.0 | 5.0 | 0.00 | 0.00 | 0.00 | 53 | 1009.0 |
| 20260504231149 | 66 | 167 | 6.0 | 6.0 | 0.00 | 0.00 | 0.00 | 53 | 1008.8 |
| 20260504230646 | 67 | 92 | 2.0 | 6.0 | 0.00 | 0.00 | 0.00 | 52 | 1008.7 |
| 20260504230145 | 67 | 106 | 4.0 | 7.0 | 0.00 | 0.00 | 0.00 | 52 | 1008.8 |
| 20260504225643 | 67 | 142 | 2.0 | 6.0 | 0.00 | 0.00 | 0.00 | 51 | 1008.7 |
| 20260504225138 | 67 | 223 | 0.0 | 4.0 | 0.00 | 0.00 | 0.00 | 51 | 1008.8 |
| 20260504224635 | 67 | 92 | 3.0 | 6.0 | 0.00 | 0.00 | 0.00 | 52 | 1008.8 |
| 20260504224132 | 67 | 248 | 0.0 | 9.0 | 0.00 | 0.00 | 0.00 | 52 | 1008.8 |
| 20260504223629 | 67 | 92 | 5.0 | 9.0 | 0.00 | 0.00 | 0.00 | 52 | 1008.7 |
| 20260504223125 | 68 | 152 | 2.0 | 5.0 | 0.00 | 0.00 | 0.00 | 50 | 1009.0 |
| 20260504222622 | 69 | 161 | 2.0 | 6.0 | 0.00 | 0.00 | 0.00 | 49 | 1009.0 |
| 20260504222119 | 68 | 153 | 3.0 | 9.0 | 0.00 | 0.00 | 0.00 | 50 | 1009.0 |
| 20260504221616 | 69 | 110 | 3.0 | 4.0 | 0.00 | 0.00 | 0.00 | 47 | 1009.0 |
| 20260504221114 | 69 | 208 | 2.0 | 7.0 | 0.00 | 0.00 | 0.00 | 47 | 1009.1 |
| 20260504220610 | 69 | 109 | 3.0 | 6.0 | 0.00 | 0.00 | 0.00 | 46 | 1009.2 |
| 20260504220108 | 70 | 86 | 0.0 | 6.0 | 0.00 | 0.00 | 0.00 | 46 | 1009.1 |
| 20260504215603 | 71 | 165 | 3.0 | 5.0 | 0.00 | 0.00 | 0.00 | 44 | 1008.8 |
| 20260504215101 | 70 | 353 | 2.0 | 6.0 | 0.00 | 0.00 | 0.00 | 46 | 1009.1 |
| 20260504214557 | 69 | 150 | 3.0 | 13.0 | 0.00 | 0.00 | 0.00 | 47 | 1009.2 |
| 20260504214053 | 70 | 188 | 3.0 | 11.0 | 0.00 | 0.00 | 0.00 | 45 | 1009.0 |
| 20260504213550 | 69 | 115 | 9.0 | 9.0 | 0.00 | 0.00 | 0.00 | 46 | 1009.1 |
| 20260504213047 | 71 | 253 | 2.0 | 6.0 | 0.00 | 0.00 | 0.00 | 45 | 1009.1 |
| 20260504212543 | 70 | 115 | 6.0 | 9.0 | 0.00 | 0.00 | 0.00 | 44 | 1009.1 |
| 20260504212040 | 70 | 311 | 2.0 | 14.0 | 0.00 | 0.00 | 0.00 | 44 | 1009.1 |
| 20260504211537 | 71 | 310 | 2.0 | 7.0 | 0.00 | 0.00 | 0.00 | 42 | 1009.1 |
| 20260504211034 | 71 | 266 | 3.0 | 10.0 | 0.00 | 0.00 | 0.00 | 42 | 1009.3 |
| 20260504210531 | 71 | 139 | 6.0 | 6.0 | 0.00 | 0.00 | 0.00 | 40 | 1009.0 |
| 20260504210028 | 71 | 148 | 2.0 | 6.0 | 0.00 | 0.00 | 0.00 | 43 | 1009.0 |
| 20260504205526 | 72 | 273 | 2.0 | 9.0 | 0.00 | 0.00 | 0.00 | 41 | 1009.1 |
| 20260504205023 | 74 | 158 | 4.0 | 10.0 | 0.00 | 0.00 | 0.00 | 38 | 1009.1 |
| 20260504204521 | 75 | 226 | 6.0 | 10.0 | 0.00 | 0.00 | 0.00 | 31 | 1009.1 |
| 20260504204020 | 75 | 215 | 4.0 | 5.0 | 0.00 | 0.00 | 0.00 | 31 | 1008.8 |
| 20260504203517 | 74 | 239 | 1.0 | 10.0 | 0.00 | 0.00 | 0.00 | 32 | 1009.2 |
| 20260504203015 | 74 | 226 | 2.0 | 11.0 | 0.00 | 0.00 | 0.00 | 32 | 1009.2 |
| 20260504202510 | 74 | 140 | 2.0 | 10.0 | 0.00 | 0.00 | 0.00 | 31 | 1009.1 |
| 20260504202007 | 74 | 233 | 5.0 | 11.0 | 0.00 | 0.00 | 0.00 | 31 | 1009.1 |
| 20260504201504 | 74 | 229 | 3.0 | 5.0 | 0.00 | 0.00 | 0.00 | 30 | 1009.4 |
| 20260504201002 | 74 | 103 | 2.0 | 9.0 | 0.00 | 0.00 | 0.00 | 31 | 1009.2 |
| 20260504200458 | 73 | 224 | 4.0 | 15.0 | 0.00 | 0.00 | 0.00 | 31 | 1009.2 |
| 20260504195955 | 74 | 193 | 4.0 | 10.0 | 0.00 | 0.00 | 0.00 | 31 | 1009.3 |
| 20260504195451 | 73 | 228 | 7.0 | 10.0 | 0.00 | 0.00 | 0.00 | 31 | 1009.3 |
| 20260504194948 | 73 | 217 | 6.0 | 7.0 | 0.00 | 0.00 | 0.00 | 31 | 1009.3 |
| 20260504194444 | 73 | 232 | 10.0 | 16.0 | 0.00 | 0.00 | 0.00 | 31 | 1009.4 |
| 20260504193940 | 73 | 236 | 3.0 | 11.0 | 0.00 | 0.00 | 0.00 | 30 | 1009.3 |
| 20260504193437 | 73 | 247 | 6.0 | 9.0 | 0.00 | 0.00 | 0.00 | 30 | 1009.2 |
| 20260504192936 | 72 | 286 | 13.0 | 14.0 | 0.00 | 0.00 | 0.00 | 31 | 1009.5 |
| 20260504192433 | 72 | 246 | 11.0 | 14.0 | 0.00 | 0.00 | 0.00 | 31 | 1009.5 |
| 20260504191932 | 73 | 230 | 5.0 | 18.0 | 0.00 | 0.00 | 0.00 | 31 | 1009.7 |
| 20260504191430 | 73 | 248 | 11.0 | 13.0 | 0.00 | 0.00 | 0.00 | 30 | 1009.5 |
| 20260504190930 | 73 | 295 | 5.0 | 13.0 | 0.00 | 0.00 | 0.00 | 31 | 1009.7 |
| 20260504190425 | 72 | 227 | 6.0 | 13.0 | 0.00 | 0.00 | 0.00 | 32 | 1009.7 |
| 20260504185922 | 72 | 290 | 9.0 | 15.0 | 0.00 | 0.00 | 0.00 | 31 | 1009.7 |
| 20260504185420 | 72 | 301 | 3.0 | 13.0 | 0.00 | 0.00 | 0.00 | 31 | 1009.8 |
| 20260504184915 | 72 | 205 | 6.0 | 9.0 | 0.00 | 0.00 | 0.00 | 32 | 1009.9 |
| 20260504184411 | 72 | 229 | 11.0 | 11.0 | 0.00 | 0.00 | 0.00 | 32 | 1009.9 |
| 20260504183907 | 71 | 210 | 4.0 | 10.0 | 0.00 | 0.00 | 0.00 | 32 | 1010.1 |
| 20260504183405 | 71 | 261 | 10.0 | 17.0 | 0.00 | 0.00 | 0.00 | 32 | 1010.3 |
| 20260504182903 | 71 | 232 | 4.0 | 15.0 | 0.00 | 0.00 | 0.00 | 32 | 1010.0 |
| 20260504182359 | 71 | 198 | 5.0 | 11.0 | 0.00 | 0.00 | 0.00 | 32 | 1010.0 |
| 20260504181856 | 70 | 253 | 1.0 | 11.0 | 0.00 | 0.00 | 0.00 | 34 | 1010.2 |
| 20260504181354 | 71 | 150 | 1.0 | 11.0 | 0.00 | 0.00 | 0.00 | 33 | 1010.2 |
| 20260504180852 | 71 | 53 | 3.0 | 11.0 | 0.00 | 0.00 | 0.00 | 33 | 1010.6 |
| 20260504180350 | 71 | 224 | 4.0 | 9.0 | 0.00 | 0.00 | 0.00 | 33 | 1010.7 |
| 20260504175848 | 70 | 294 | 4.0 | 11.0 | 0.00 | 0.00 | 0.00 | 33 | 1010.7 |
| 20260504175345 | 69 | 259 | 5.0 | 11.0 | 0.00 | 0.00 | 0.00 | 34 | 1010.8 |
| 20260504174843 | 69 | 258 | 4.0 | 15.0 | 0.00 | 0.00 | 0.00 | 34 | 1010.7 |
| 20260504174340 | 69 | 260 | 8.0 | 16.0 | 0.00 | 0.00 | 0.00 | 34 | 1010.9 |
| 20260504173837 | 70 | 206 | 6.0 | 13.0 | 0.00 | 0.00 | 0.00 | 34 | 1010.6 |
| 20260504173334 | 70 | 184 | 6.0 | 11.0 | 0.00 | 0.00 | 0.00 | 34 | 1010.5 |
| 20260504172831 | 69 | 239 | 6.0 | 10.0 | 0.00 | 0.00 | 0.00 | 35 | 1010.7 |
| 20260504172328 | 70 | 126 | 1.0 | 10.0 | 0.00 | 0.00 | 0.00 | 34 | 1010.6 |
| 20260504171823 | 69 | 237 | 3.0 | 8.0 | 0.00 | 0.00 | 0.00 | 34 | 1010.7 |
| 20260504171321 | 69 | 221 | 3.0 | 15.0 | 0.00 | 0.00 | 0.00 | 34 | 1010.8 |
| 20260504170818 | 68 | 256 | 3.0 | 14.0 | 0.00 | 0.00 | 0.00 | 35 | 1010.8 |
| 20260504170315 | 68 | 245 | 5.0 | 15.0 | 0.00 | 0.00 | 0.00 | 34 | 1010.8 |
| 20260504160233 | 66 | 221 | 3.0 | 9.0 | 0.00 | 0.00 | 0.00 | 35 | 1011.6 |